Аэропорт
Сыктывкар (UUYY)

 UUYY / SCW
ЗЦ Санкт-Петербург
Сыктывкар (UUYY)
Сыктывкар (UUYY)
 61.64700, 50.84510  / 342 ft

 UUYY 191200Z 31003G08MPS 220V010 CAVOK 21/05 Q1008 R36/CLRD61 NOSIG RMK QFE747/0996

показать схемы

Аэродром "Сыктывкар" (UUYY)

Рекомендованные сценарии:

FS2004 от Aniter

P3D/FSX от Aniter 

Схемы:

АИП

Средства связи ОВД:

UUYY_R_APP - Сивкар-Круг - 124.600

UUYY_TWR - Сивкар-Старт - 124.600

UUYY_ATIS - Сивкар-АТИС (русский, английский) - 126.600



2019 © VATRUS division (Privacy Policy)